#timestamp,LO_Frequency,Hit 
1502046015.6,286047000.5,N
1502046035.4,286046999.7,N
1502046055.3,286046998.1,N
1502046075.1,286046998.4,N
1502046076.0,286046998.4,N
1502046095.8,286047000.7,N
1502046115.7,286047004.2,N
1502046135.5,286047001.8,N
1502046155.3,286046999.8,N
1502046175.2,286047004.0,N
1502046195.9,286047004.4,N
1502046215.7,286047001.5,N
1502046235.6,286047002.2,N
1502046255.4,286046998.1,N
1502046275.2,286046999.7,N
1502046295.0,286046998.3,N
1502046296.0,286046998.3,N
1502046315.8,286046998.1,N
1502046335.6,286047000.9,N
1502046355.4,286046999.8,N
1502046375.3,286047001.3,N
1502046395.1,286047002.0,N
1502046415.8,286047005.5,N
1502046435.7,286047002.8,N
1502046455.5,286047002.3,N
1502046475.3,286047001.6,N
1502046495.2,286047002.3,N
1502046515.9,286047000.0,N
1502046535.7,286047000.2,N
1502046555.6,286047000.3,N
1502046575.4,286046998.2,N
1502046595.2,286047001.0,N
1502046615.0,286046998.6,N
1502046616.0,286046998.6,N
1502046635.8,286046998.3,N
1502046655.6,286046999.1,N
1502046675.4,286046996.0,N
1502046695.3,286046994.6,N
1502046715.1,286046995.6,N
1502046735.8,286046995.2,N
1502046755.7,286046995.5,N
1502046775.5,286046995.5,N
1502046795.3,286046996.7,N
1502046815.2,286046999.4,N
1502046835.9,286046997.7,N
1502046855.7,286046997.3,N
1502046875.6,286046995.5,N
1502046895.4,286046995.4,N
1502046915.2,286046994.0,N
1502046935.1,286046996.6,N
1502046936.0,286046996.6,N
1502046955.8,286046995.5,N
1502046975.6,286046996.6,N
1502046995.5,286046994.9,N
1502047015.3,286046995.4,N
1502047035.1,286046997.7,N
1502047055.9,286046997.2,N
1502047075.7,286046997.1,N
1502047095.5,286046995.7,N
1502047115.3,286046998.0,N
1502047135.2,286046995.9,N
1502047155.0,286046997.3,N
1502047155.9,286046997.3,N
1502047175.7,286046996.8,N
1502047195.6,286046996.8,N
1502047215.4,286046996.6,N
1502047235.2,286046995.5,P
1502047255.1,286046996.7,P
1502047256.0,286046996.7,P
1502047275.8,286047000.9,N
1502047295.6,286047000.8,N
1502047315.5,286046998.1,N
1502047335.3,286046999.4,N
1502047355.1,286046998.9,N
1502047375.9,286047000.3,N
1502047395.7,286047001.0,N
1502047415.5,286047001.2,N
1502047435.4,286046998.2,N
1502047455.2,286047002.8,N
1502047475.0,286046999.7,N
1502047475.9,286046999.7,N
1502047495.8,286046999.4,N
1502047515.6,286046998.9,N
1502047535.4,286046999.2,N
1502047555.2,286046999.2,N
1502047575.1,286046998.5,N
1502047576.0,286046998.5,N
1502047595.8,286047001.0,N
1502047615.6,286046998.1,N
1502047635.5,286047000.1,N
1502047655.3,286047001.1,N
1502047675.1,286046998.1,N
1502047695.9,286046998.4,N
1502047715.7,286046998.9,N
1502047735.5,286047001.0,N
1502047755.4,286047000.9,N
1502047775.2,286046998.6,N
1502047795.0,286046999.6,N
1502047795.9,286046999.6,N
1502047815.8,286046997.1,N
1502047835.6,286047000.1,N
1502047855.4,286047000.9,N
1502047875.3,286047000.3,N
1502047895.1,286047000.5,N
1502047896.0,286047000.5,N
1502047915.8,286047000.7,N
1502047935.7,286047000.2,N
1502047955.5,286047000.0,N
1502047975.3,286047000.9,N
1502047995.2,286046998.4,N
1502048015.9,286047001.8,N
1502048035.7,286047002.2,N
1502048055.5,286047001.4,N
1502048075.4,286047005.6,P
1502048095.2,286047005.6,N
1502048115.1,286047005.0,N
1502048116.0,286047005.0,N
1502048135.8,286047005.9,N
1502048155.6,286047005.8,N
1502048175.4,286047002.2,N
1502048195.3,286047000.3,N
1502048215.1,286047000.1,N
1502048235.8,286047002.1,N
1502048255.7,286047002.6,N
1502048275.5,286047001.6,N
1502048295.3,286047001.4,N
1502048315.2,286047001.9,N
1502048335.9,286047001.7,N
1502048355.7,286047002.7,N
1502048375.6,286047001.6,N
1502048395.4,286047002.2,N
1502048415.2,286046999.8,N
1502048435.1,286046999.9,N
1502048436.0,286046999.9,N
1502048455.8,286047001.9,N
1502048475.6,286047005.6,N
1502048495.5,286047007.0,P
1502048515.3,286047001.3,N
1502048535.1,286047006.0,N
1502048555.9,286047001.5,N
1502048575.7,286047002.1,N
1502048595.5,286047000.8,N
1502048615.3,286046999.2,N
1502048635.2,286046998.8,N
1502048655.0,286046997.0,N
1502048655.9,286046997.0,N
1502048675.7,286047001.1,N
1502048695.6,286046996.8,N
1502048715.4,286046995.1,N
1502048735.2,286046997.4,N
1502048755.1,286046997.3,N
1502048756.0,286046997.3,N
1502048775.8,286046999.0,N
1502048795.6,286046996.6,N
1502048815.5,286047000.9,N
1502048835.3,286046998.8,N
1502048855.1,286046998.4,N
1502048875.9,286046999.1,N
1502048895.7,286047000.5,N
1502048915.5,286047000.5,N
1502048935.4,286047000.3,N
1502048955.2,286046998.7,N
1502048975.0,286046999.0,N
1502048975.9,286046999.0,N
1502048995.8,286046999.2,N
1502049015.6,286046996.5,N
1502049035.4,286046998.7,N
1502049055.2,286047001.1,N
1502049075.1,286046999.9,N
1502049076.0,286046999.9,N
1502049095.8,286047000.8,N
1502049115.6,286046998.8,N
1502049135.5,286046999.1,N
1502049155.3,286046998.6,N
1502049175.1,286046998.2,N
1502049195.9,286047002.7,N
1502049215.7,286047002.4,N
1502049235.5,286047001.2,N
1502049255.4,286046996.6,N
1502049275.2,286046998.3,N
1502049295.0,286047000.0,N
1502049295.9,286047000.0,N
1502049315.8,286047002.4,N
1502049335.6,286047000.6,N
1502049355.4,286047000.0,N
1502049375.3,286047000.8,N
1502049395.1,286046999.8,N
1502049396.0,286046999.8,N
1502049415.8,286047003.9,N
1502049435.7,286047001.4,N
1502049455.5,286047001.5,N
1502049475.3,286046999.8,N
1502049495.1,286047004.3,N
1502049515.9,286047003.5,N
1502049535.7,286047004.2,N
1502049555.5,286047003.0,N
1502049575.4,286047003.2,N
1502049595.2,286047004.4,N
